FREGAT DEB, 45847

Orbit data source: Space-Track

FREGAT DEB, 45847 is space debris in LEO originally from a launch on Mon, 18 Jul 2011 UTC launched from the Tyuratam Missile And Space Complex (TTMTR). Debris objects in space refer to the collection of defunct objects orbiting the Earth. Examples of debris include non-operational satellites, rocket bodies, and fragments generated from explosions, collisions, or faulty payload assembly.

Loading next visibility...
Identifier
45847, 2011-037CH
Orbit
LEO
Last TLE update
2 days ago
Origin
Manufacturer
Lavochkin
Mission
Spacecraft
Bus & Motor
Unknown
Mass
Unknown
Launch date (UTC)
Icon of a cake. It is the launch day of the satellite!2011-07-18 (14 years ago)
Launch vehicle
Unknown
Launch site
Tyuratam Missile And Space Complex (TTMTR)
Object type
Payload
Rocket body
Debris
Shape & HBR
Unknown
Radar Cross Section
Small (<0.1 m²)

Expand to show TLE details & history

TLE from 2 days ago
0 FREGAT DEB
1 45847U 11037CH  25197.85253857  .00027648  00000-0  22358-2 0  9996
2 45847  51.4120   3.8870 1192527 270.8712  75.6037 12.94189891217429
Epoch: 2025-07-16T20:27Z
TLE epoch observation values (Epoch: 2025-07-16T20:27:39.332Z)
Latitude
-0.00005°
Longitude
122.04632°
Altitude
1,164.347 km
Speed
7.329 km/s
True Right ascension
00h 15m 32s
True Declination
0° 00' 00"
Sunlit
Object was in daylight at epoch
Visualization orbit readout
Latitude
27.24178°
Longitude
-89.22931°
Altitude
1,831.616 km
Speed
6.719 km/s
Apparent Right ascension
07h 36m 05s
Apparent Declination
-4° 50' 04"
Sunlit
Object is in daylight
Visualization observer readout
Local Sidereal Time
12:09:44
Azimuth
252.063° W
Elevation
13.129°
Doppler factor
1
Orbital elements
Apogee altitude
2,199.337 km
Perigee altitude
371.533 km
Semi-major axis
7,663.572 km
Eccentricity
0.11925
Inclination
51.412°
RAAN
3.887°
Arg. of periapsis
270.8712°
True anomaly
89.21875°
Mean anomaly
75.6037°
Eccentric anomaly
82.37598°
Mean motion
3.23516 °/min
Orbital period
111.28 mins
BSTAR
0.0022358
Loading maneuver chart data...
Loading SW <> Apogee altitude chart data...
Loading historical data...
Loading historical data...
Loading historical data...
Loading historical data...
Loading historical data...
Loading historical data...
Loading historical data...
|